�N����,����,�~����,�C��,���x,�C��,����,���ϕ���,�ő�u�ԕ���,�ő厞����,���˗�,�I�_���x,�n�����x,�ő啗���N��,DTYPE
"19/03/02","00:10",0.0,3.4,86.3,1014.0,287.4,0.5,1.4,307.9,0.00,1.4,8.2,"00:00:02",1
"19/03/02","00:20",0.0,3.1,87.7,1014.0,300.1,1.8,2.7,321.1,0.00,1.3,8.1,"00:18:40",1
"19/03/02","00:30",0.0,2.9,88.1,1014.2,293.0,1.5,2.6,307.3,0.00,1.2,7.9,"00:20:08",1
"19/03/02","00:40",0.0,2.7,88.5,1013.8,302.2,1.8,3.3,323.7,0.00,1.0,8.0,"00:39:36",1
"19/03/02","00:50",0.0,2.8,90.1,1013.8,317.1,2.2,3.5,324.4,0.00,1.4,7.9,"00:40:48",1
"19/03/02","01:00",0.0,2.7,90.5,1014.0,303.8,1.8,2.4,317.4,0.00,1.3,7.6,"00:53:52",1
"19/03/02","01:10",0.0,2.4,90.1,1014.0,310.1,2.1,3.1,321.7,0.00,1.0,7.9,"01:00:02",1
"19/03/02","01:20",0.0,2.3,91.3,1013.8,318.1,2.3,3.2,322.7,0.00,1.1,7.5,"01:10:08",1
"19/03/02","01:30",0.0,2.1,91.5,1013.8,306.1,2.1,2.8,319.0,0.00,0.9,7.6,"01:26:16",1
"19/03/02","01:40",0.0,2.1,92.2,1014.0,302.0,2.3,2.8,317.7,0.00,1.0,7.7,"01:37:36",1
"19/03/02","01:50",0.0,2.1,92.8,1013.8,298.2,2.3,2.9,311.5,0.00,1.1,7.5,"01:40:48",1
"19/03/02","02:00",0.0,2.3,93.0,1013.8,297.6,2.8,3.7,312.0,0.00,1.3,7.6,"01:58:40",1
"19/03/02","02:10",0.0,2.4,92.8,1013.8,300.3,2.7,4.5,313.1,0.00,1.4,7.4,"02:03:04",1
"19/03/02","02:20",0.0,2.3,93.3,1013.8,297.8,1.8,2.7,317.5,0.00,1.4,7.3,"02:10:56",1
"19/03/02","02:30",0.0,2.1,93.2,1013.8,293.0,2.0,2.9,320.9,0.00,1.2,7.5,"02:25:12",1
"19/03/02","02:40",0.0,2.2,93.8,1014.0,285.6,1.8,2.2,298.2,0.00,1.3,7.3,"02:38:56",1
"19/03/02","02:50",0.0,2.5,93.8,1014.0,297.9,2.7,4.0,313.3,0.00,1.6,7.2,"02:48:16",1
"19/03/02","03:00",0.0,2.6,93.5,1014.0,302.9,2.5,4.2,320.7,0.00,1.7,7.2,"02:51:28",1
"19/03/02","03:10",0.0,2.6,93.1,1013.5,301.8,2.6,3.7,314.5,0.00,1.6,7.2,"03:01:36",1
"19/03/02","03:20",0.0,2.6,93.6,1013.8,293.0,2.5,4.1,314.2,0.00,1.7,7.1,"03:10:02",1
"19/03/02","03:30",0.0,3.0,93.0,1013.3,299.2,3.1,4.4,315.3,0.00,2.0,7.2,"03:26:00",1
"19/03/02","03:40",0.0,2.8,92.9,1013.3,297.0,2.6,4.4,323.8,0.00,1.8,7.2,"03:39:36",1
"19/03/02","03:50",0.0,2.9,92.6,1013.5,301.2,3.1,5.5,318.2,0.00,1.9,6.9,"03:46:32",1
"19/03/02","04:00",0.0,2.7,92.2,1013.8,289.5,1.6,2.7,316.8,0.00,1.6,6.9,"03:54:00",1
"19/03/02","04:10",0.0,2.5,92.1,1013.8,282.4,2.1,2.7,302.5,0.00,1.4,7.1,"04:09:20",1
"19/03/02","04:20",0.0,2.5,92.5,1013.5,312.7,3.1,4.4,323.5,0.00,1.4,7.1,"04:18:28",1
"19/03/02","04:30",0.0,2.4,92.4,1013.8,302.3,2.8,3.5,307.3,0.00,1.3,6.9,"04:20:32",1
"19/03/02","04:40",0.0,2.6,92.5,1014.0,299.4,3.0,4.5,327.9,0.00,1.5,7.1,"04:36:08",1
"19/03/02","04:50",0.0,2.9,92.3,1014.0,308.8,3.4,5.4,328.5,0.00,1.8,6.7,"04:47:52",1
"19/03/02","05:00",0.0,2.8,91.5,1013.8,314.4,2.7,4.8,323.0,0.00,1.6,7.0,"04:50:16",1
"19/03/02","05:10",0.0,2.7,91.6,1013.8,311.0,2.8,4.9,334.7,0.00,1.5,6.6,"05:05:04",1
"19/03/02","05:20",0.0,2.3,91.3,1014.0,293.1,1.2,1.9,320.6,0.00,1.1,6.8,"05:10:02",1
"19/03/02","05:30",0.0,1.6,91.5,1013.8,313.6,2.0,3.3,320.7,0.00,0.4,6.9,"05:22:24",1
"19/03/02","05:40",0.0,1.2,92.8,1013.8,315.0,2.0,2.7,321.8,0.00,0.2,6.8,"05:30:08",1
"19/03/02","05:50",0.0,1.2,93.7,1013.3,277.3,0.8,1.7,323.4,0.00,0.3,6.6,"05:40:16",1
"19/03/02","06:00",0.0,1.2,94.1,1013.3,302.8,1.3,2.1,313.2,0.00,0.4,6.6,"05:57:36",1
"19/03/02","06:10",0.0,1.0,93.7,1013.3,319.4,1.7,2.8,326.6,0.00,0.1,6.6,"06:06:48",1
"19/03/02","06:20",0.0,0.8,93.3,1013.3,324.4,1.6,2.5,345.3,0.00,-0.1,6.6,"06:11:12",1
"19/03/02","06:30",0.0,0.5,94.0,1013.3,80.8,1.0,2.0,311.9,0.00,-0.3,6.6,"06:26:40",1
"19/03/02","06:40",0.0,0.6,95.2,1014.0,330.9,0.8,2.1,327.2,0.00,0.0,6.3,"06:35:20",1
"19/03/02","06:50",0.0,0.7,95.3,1013.8,316.3,1.6,3.1,315.6,0.00,0.1,6.6,"06:49:44",1
"19/03/02","07:00",0.0,0.9,95.7,1014.0,301.6,1.2,2.1,309.2,0.00,0.3,6.5,"06:50:08",1
"19/03/02","07:10",0.0,1.0,96.0,1014.0,302.7,0.5,0.9,287.5,0.00,0.5,6.5,"07:09:36",1
"19/03/02","07:20",0.0,1.1,95.4,1014.0,317.0,0.8,2.2,317.9,0.00,0.5,6.5,"07:12:56",1
"19/03/02","07:30",0.0,1.6,96.2,1014.2,309.0,1.2,2.6,313.2,0.00,1.1,6.6,"07:25:04",1
"19/03/02","07:40",0.0,1.7,95.7,1014.5,306.4,1.3,2.5,318.3,0.01,1.1,6.5,"07:32:32",1
"19/03/02","07:50",0.0,2.1,95.8,1014.5,296.0,1.2,2.0,319.7,0.02,1.5,6.4,"07:46:24",1
"19/03/02","08:00",0.0,2.9,95.5,1014.7,301.2,1.0,1.8,335.4,0.03,2.3,6.4,"07:51:52",1
"19/03/02","08:10",0.0,3.5,94.4,1015.2,290.2,1.2,2.2,311.9,0.05,2.7,6.5,"08:07:44",1
"19/03/02","08:20",0.0,3.9,92.7,1015.2,321.2,0.8,1.7,311.9,0.07,2.9,6.6,"08:10:16",1
"19/03/02","08:30",0.0,4.6,92.0,1015.6,230.1,0.7,1.1,276.9,0.10,3.5,6.5,"08:28:48",1
"19/03/02","08:40",0.0,5.2,89.2,1015.9,275.8,0.6,1.6,315.0,0.12,3.6,6.6,"08:38:00",1
"19/03/02","08:50",0.0,5.5,86.7,1016.1,273.1,0.7,1.7,301.1,0.14,3.5,6.9,"08:45:52",1
"19/03/02","09:00",0.0,5.8,84.9,1016.6,265.6,0.6,1.0,130.3,0.17,3.5,6.9,"08:52:32",1
"19/03/02","09:10",0.0,6.3,82.8,1016.6,212.6,0.6,1.3,154.6,0.20,3.6,7.2,"09:07:12",1
"19/03/02","09:20",0.0,6.9,82.0,1016.8,241.6,0.7,1.2,139.5,0.22,4.1,6.9,"09:10:16",1
"19/03/02","09:30",0.0,7.1,81.9,1017.3,207.3,1.0,2.4,101.7,0.25,4.3,7.2,"09:26:24",1
"19/03/02","09:40",0.0,7.2,81.6,1016.8,160.7,1.1,3.1,128.8,0.27,4.3,7.4,"09:34:08",1
"19/03/02","09:50",0.0,7.6,79.2,1017.3,171.7,1.1,2.4,140.3,0.30,4.3,7.6,"09:45:20",1
"19/03/02","10:00",0.0,7.7,77.3,1016.8,192.8,1.0,2.9,147.1,0.32,4.0,7.7,"09:53:12",1
"19/03/02","10:10",0.0,8.2,77.0,1016.8,233.0,0.7,1.8,172.0,0.34,4.5,8.0,"10:05:28",1
"19/03/02","10:20",0.0,9.0,75.8,1016.6,269.9,0.8,2.0,114.5,0.36,5.0,8.0,"10:12:16",1
"19/03/02","10:30",0.0,9.1,73.9,1016.8,195.2,1.1,2.5,191.1,0.39,4.7,8.6,"10:22:24",1
"19/03/02","10:40",0.0,9.1,73.0,1016.4,271.4,1.1,2.2,73.0,0.40,4.6,8.7,"10:36:48",1
"19/03/02","10:50",0.0,10.1,70.9,1016.4,264.5,0.7,1.7,312.4,0.42,5.1,8.9,"10:48:08",1
"19/03/02","11:00",0.0,10.9,69.3,1016.6,235.7,0.6,1.4,222.4,0.43,5.5,9.2,"10:59:44",1
"19/03/02","11:10",0.0,10.6,63.7,1016.6,221.4,0.8,2.4,193.2,0.44,4.1,9.3,"11:05:36",1
"19/03/02","11:20",0.0,10.8,58.2,1016.1,321.1,1.7,4.0,325.5,0.45,3.0,9.6,"11:13:44",1
"19/03/02","11:30",0.0,11.6,58.1,1015.6,267.3,1.0,2.2,320.4,0.47,3.7,9.8,"11:20:08",1
"19/03/02","11:40",0.0,11.8,58.5,1015.2,182.8,1.7,3.9,171.5,0.48,4.0,10.1,"11:36:48",1
"19/03/02","11:50",0.0,11.8,58.5,1014.7,225.7,1.8,2.9,232.9,0.50,4.0,10.3,"11:43:20",1
"19/03/02","12:00",0.0,11.7,56.1,1014.7,152.8,2.1,5.0,103.2,0.50,3.3,10.5,"11:58:56",1
"19/03/02","12:10",0.0,12.3,54.2,1014.2,105.3,1.2,3.1,125.1,0.51,3.4,10.7,"12:09:12",1
"19/03/02","12:20",0.0,12.0,53.4,1014.2,153.3,1.6,3.5,122.9,0.51,2.9,11.0,"12:10:48",1
"19/03/02","12:30",0.0,12.4,51.5,1013.8,97.7,1.1,3.2,131.9,0.51,2.7,11.4,"12:28:48",1
"19/03/02","12:40",0.0,12.9,52.2,1013.8,140.9,1.6,3.2,128.9,0.52,3.4,11.4,"12:37:52",1
"19/03/02","12:50",0.0,13.1,50.4,1013.5,187.1,2.2,3.7,191.7,0.52,3.1,11.7,"12:45:36",1
"19/03/02","13:00",0.0,13.4,50.2,1013.3,188.6,2.0,3.5,177.0,0.51,3.3,11.7,"12:50:32",1
"19/03/02","13:10",0.0,13.4,50.0,1013.0,169.5,1.7,4.1,163.9,0.51,3.2,12.0,"13:02:16",1
"19/03/02","13:20",0.0,13.6,48.9,1012.8,197.1,2.2,4.4,222.7,0.51,3.1,12.2,"13:12:00",1
"19/03/02","13:30",0.0,13.5,45.3,1012.8,202.2,2.7,4.5,161.3,0.51,1.9,12.2,"13:21:36",1
"19/03/02","13:40",0.0,14.7,44.7,1012.3,159.4,1.2,3.6,218.6,0.49,2.8,12.3,"13:30:16",1
"19/03/02","13:50",0.0,14.4,45.1,1012.3,96.8,1.1,2.4,12.0,0.48,2.7,12.6,"13:44:32",1
"19/03/02","14:00",0.0,14.5,37.4,1012.1,348.3,1.6,4.9,338.4,0.47,0.2,12.7,"13:59:20",1
"19/03/02","14:10",0.0,14.8,38.6,1012.3,335.1,2.8,7.1,341.4,0.47,0.9,12.9,"14:03:52",1
"19/03/02","14:20",0.0,14.1,33.4,1012.6,322.3,2.6,5.8,315.5,0.40,-1.7,13.0,"14:15:36",1
"19/03/02","14:30",0.0,14.4,34.0,1012.1,328.2,3.1,5.6,340.0,0.41,-1.2,12.9,"14:22:24",1
"19/03/02","14:40",0.0,14.5,34.0,1012.3,318.9,2.8,6.5,338.2,0.37,-1.1,13.0,"14:33:12",1
"19/03/02","14:50",0.0,14.7,33.8,1012.3,341.9,2.5,5.2,333.3,0.41,-1.0,13.3,"14:46:56",1
"19/03/02","15:00",0.0,14.8,33.5,1011.9,334.6,3.1,6.6,342.2,0.39,-1.1,13.4,"14:59:36",1
"19/03/02","15:10",0.0,14.5,31.6,1011.9,338.4,2.5,4.9,333.2,0.31,-2.1,13.2,"15:04:08",1
"19/03/02","15:20",0.0,14.5,36.3,1011.6,340.6,3.6,7.0,338.1,0.31,-0.2,13.2,"15:12:24",1
"19/03/02","15:30",0.0,14.1,34.5,1011.9,330.4,3.2,5.8,341.7,0.26,-1.3,13.1,"15:20:08",1
"19/03/02","15:40",0.0,14.4,34.0,1011.6,348.0,2.8,6.5,344.6,0.26,-1.2,13.2,"15:30:32",1
"19/03/02","15:50",0.0,14.0,34.0,1011.6,328.4,3.4,5.4,336.3,0.22,-1.6,13.1,"15:47:12",1
"19/03/02","16:00",0.0,14.0,33.2,1011.6,334.2,2.8,5.6,345.6,0.22,-1.9,13.1,"15:59:20",1
"19/03/02","16:10",0.0,13.5,33.6,1011.4,342.0,2.7,5.6,346.3,0.13,-2.2,13.0,"16:01:20",1
"19/03/02","16:20",0.0,13.7,31.7,1011.9,335.2,2.5,5.0,337.0,0.15,-2.8,13.0,"16:13:12",1
"19/03/02","16:30",0.0,13.4,36.2,1011.9,337.3,3.2,5.4,336.5,0.15,-1.2,12.9,"16:22:56",1
"19/03/02","16:40",0.0,13.5,34.5,1012.1,342.0,3.1,6.7,347.9,0.13,-1.8,12.5,"16:39:04",1
"19/03/02","16:50",0.0,12.7,36.0,1012.3,339.2,3.2,5.7,345.9,0.08,-1.9,12.7,"16:45:04",1
"19/03/02","17:00",0.0,12.3,38.0,1012.1,337.1,3.4,6.5,347.8,0.06,-1.6,12.6,"16:53:44",1
"19/03/02","17:10",0.0,12.0,37.9,1012.1,339.6,3.4,5.9,329.5,0.04,-1.9,12.5,"17:09:12",1
"19/03/02","17:20",0.0,11.6,38.8,1012.6,339.2,3.4,6.6,346.0,0.03,-1.9,12.2,"17:10:40",1
"19/03/02","17:30",0.0,11.3,37.2,1012.6,343.7,3.6,5.9,324.9,0.03,-2.7,12.2,"17:23:38",1
"19/03/02","17:40",0.0,10.9,38.6,1012.8,341.5,3.9,7.3,348.8,0.01,-2.6,12.0,"17:32:02",1
"19/03/02","17:50",0.0,10.4,40.0,1012.6,334.3,4.0,7.5,329.9,0.00,-2.6,12.0,"17:46:02",1
"19/03/02","18:00",0.0,10.1,39.8,1012.8,333.7,4.2,7.8,344.1,0.00,-2.9,11.8,"17:57:56",1
"19/03/02","18:10",0.0,9.8,40.2,1012.8,335.9,3.9,7.4,346.0,0.00,-3.0,11.5,"18:04:48",1
"19/03/02","18:20",0.0,9.5,41.4,1012.8,337.6,4.6,7.7,338.1,0.00,-2.9,11.4,"18:12:16",1
"19/03/02","18:30",0.0,9.2,42.4,1012.8,334.2,4.1,7.3,343.4,0.00,-2.9,11.3,"18:20:48",1
"19/03/02","18:40",0.0,9.1,42.4,1013.3,334.6,3.2,6.2,342.9,0.00,-3.0,11.3,"18:38:56",1
"19/03/02","18:50",0.0,8.9,42.5,1013.3,338.0,2.7,5.6,330.3,0.00,-3.1,11.0,"18:44:16",1
"19/03/02","19:00",0.0,8.8,43.4,1013.3,329.8,2.3,4.5,329.0,0.00,-2.9,10.8,"18:55:44",1
"19/03/02","19:10",0.0,8.8,43.7,1013.0,334.5,2.8,4.7,340.5,0.00,-2.8,10.9,"19:08:40",1
"19/03/02","19:20",0.0,8.7,44.0,1012.8,332.9,3.0,7.4,339.9,0.00,-2.8,10.9,"19:14:08",1
"19/03/02","19:30",0.0,8.5,44.9,1013.0,331.8,2.5,5.9,341.6,0.00,-2.7,10.8,"19:20:56",1
"19/03/02","19:40",0.0,8.4,45.5,1013.3,321.3,2.1,4.3,324.6,0.00,-2.6,10.5,"19:39:20",1
"19/03/02","19:50",0.0,8.2,45.8,1013.5,310.3,1.3,2.8,338.4,0.00,-2.7,10.3,"19:40:08",1
"19/03/02","20:00",0.0,8.3,45.0,1013.8,314.3,2.8,4.7,306.3,0.00,-2.9,10.5,"19:52:00",1
"19/03/02","20:10",0.0,8.3,45.6,1013.5,321.2,2.6,4.4,323.8,0.00,-2.7,10.3,"20:07:52",1
"19/03/02","20:20",0.0,8.2,46.5,1013.5,328.5,3.0,6.4,345.6,0.00,-2.5,10.4,"20:17:44",1
"19/03/02","20:30",0.0,8.1,46.9,1013.5,330.7,2.8,4.5,338.1,0.00,-2.5,10.0,"20:24:56",1
"19/03/02","20:40",0.0,8.0,48.1,1013.5,330.6,2.8,4.5,331.6,0.00,-2.3,10.2,"20:32:32",1
"19/03/02","20:50",0.0,8.0,48.5,1013.8,327.9,3.0,4.1,337.4,0.00,-2.2,10.0,"20:42:32",1
"19/03/02","21:00",0.0,7.9,48.9,1013.8,325.2,2.5,3.5,337.9,0.00,-2.1,9.8,"20:51:36",1
"19/03/02","21:10",0.0,7.9,48.7,1013.5,333.5,2.5,4.2,336.8,0.00,-2.2,10.0,"21:09:52",1
"19/03/02","21:20",0.0,7.9,48.6,1013.5,333.8,2.5,3.6,340.8,0.00,-2.2,9.8,"21:14:32",1
"19/03/02","21:30",0.0,7.8,49.2,1014.0,322.2,3.0,3.5,314.8,0.00,-2.1,9.8,"21:27:04",1
"19/03/02","21:40",0.0,7.9,49.4,1013.5,311.7,3.2,4.3,312.0,0.00,-2.0,9.6,"21:35:12",1
"19/03/02","21:50",0.0,7.7,50.1,1013.8,324.4,3.9,4.7,332.0,0.00,-2.0,9.6,"21:46:08",1
"19/03/02","22:00",0.0,7.8,49.1,1013.8,324.4,3.7,5.1,332.9,0.00,-2.2,9.6,"21:56:00",1
"19/03/02","22:10",0.0,7.7,49.4,1013.5,329.7,3.2,4.7,325.0,0.00,-2.2,9.6,"22:05:52",1
"19/03/02","22:20",0.0,7.6,50.0,1013.5,332.0,3.5,5.4,329.9,0.00,-2.1,9.6,"22:16:08",1
"19/03/02","22:30",0.0,7.5,50.8,1013.8,329.7,3.0,4.8,340.8,0.00,-2.0,9.6,"22:28:16",1
"19/03/02","22:40",0.0,7.5,51.6,1013.8,328.1,3.5,4.8,335.4,0.00,-1.8,9.5,"22:31:28",1
"19/03/02","22:50",0.0,7.2,53.6,1013.5,330.0,3.1,4.5,311.7,0.00,-1.5,9.4,"22:41:20",1
"19/03/02","23:00",0.0,7.2,53.9,1013.3,332.2,3.2,5.0,339.3,0.00,-1.5,9.2,"22:52:24",1
"19/03/02","23:10",0.0,7.3,52.6,1013.0,324.9,4.1,5.5,319.0,0.00,-1.7,9.3,"23:06:40",1
"19/03/02","23:20",0.0,7.3,52.2,1013.3,324.1,4.1,5.8,322.3,0.00,-1.8,9.2,"23:12:48",1
"19/03/02","23:30",0.0,7.2,53.6,1013.5,322.9,3.4,5.4,331.3,0.00,-1.5,9.2,"23:22:24",1
"19/03/02","23:40",0.0,7.0,55.1,1013.3,324.9,3.0,4.1,316.9,0.00,-1.4,9.0,"23:30:24",1
"19/03/02","23:50",0.0,7.1,54.6,1013.0,319.2,3.0,4.2,314.3,0.00,-1.4,9.1,"23:48:48",1
"19/03/02","24:00",0.0,7.1,53.3,1013.0,320.0,3.0,4.5,323.4,0.00,-1.7,9.0,"23:51:20",1
